Location: Newark
(48.3453°N, 0.5589°E)
Time: 15:20:28
(UTC+00:00)

Vanguard 3 - All Passes

Search period start: 06 December 2019 00:00
Search period end: 16 December 2019 00:00
Orbit: 508 x 3263 km, 33.3° (Epoch: 06 December)

Date Brightness Start Highest point End Pass type
(mag) Time Alt. Az. Time Alt. Az. Time Alt. Az.
06 Dec - 06:50:07 10° SSE 06:53:15 12° SE 06:56:51 10° ESE visible
06 Dec - 08:54:34 10° SSW 09:03:45 33° SSE 09:17:38 10° E daylight
06 Dec - 11:04:28 10° WSW 11:16:42 46° S 11:34:16 10° ESE daylight
06 Dec - 13:16:41 10° W 13:31:01 40° SSW 13:48:25 10° SE daylight
06 Dec - 15:32:10 10° W 15:44:46 23° SW 15:57:47 10° S daylight
07 Dec - 07:42:46 10° S 07:49:45 23° SE 07:59:39 10° E daylight
07 Dec - 09:51:04 10° SW 10:01:25 41° SSE 10:17:17 10° ESE daylight
07 Dec - 12:02:07 10° WSW 12:15:08 44° S 12:32:49 10° SE daylight
07 Dec - 14:15:35 10° W 14:29:18 31° SSW 14:44:53 10° SSE daylight
07 Dec - 16:36:48 10° WSW 16:42:11 12° SW 16:47:37 10° SSW visible
08 Dec - 06:33:19 10° SSE 06:36:23 12° SE 06:39:56 10° ESE visible
08 Dec - 08:38:21 10° SW 08:46:48 33° SSE 08:59:54 10° E daylight
08 Dec - 10:48:14 10° WSW 10:59:32 44° S 11:16:24 10° ESE daylight
08 Dec - 13:00:18 10° W 13:13:35 37° SSW 13:30:26 10° SE daylight
08 Dec - 15:16:03 10° WSW 15:27:12 20° SW 15:39:09 10° S daylight
09 Dec - 07:26:30 10° SSW 07:32:54 23° SE 07:42:08 10° E daylight
09 Dec - 09:34:57 10° SW 09:44:27 40° SSE 09:59:26 10° ESE daylight
09 Dec - 11:45:53 10° WSW 11:57:54 41° S 12:14:51 10° SE daylight
09 Dec - 13:59:19 10° W 14:11:50 27° SSW 14:26:34 10° SSE daylight
10 Dec - 06:16:45 10° SSE 06:19:37 12° SE 06:22:58 10° ESE visible
10 Dec - 08:22:16 10° SW 08:29:59 33° SSE 08:42:10 10° ESE daylight
10 Dec - 10:32:08 10° WSW 10:42:30 42° S 10:58:27 10° ESE daylight
10 Dec - 12:44:06 10° WSW 12:56:16 34° SSW 13:12:14 10° SSE daylight
10 Dec - 15:00:22 10° WSW 15:09:44 17° SW 15:19:57 10° S daylight
11 Dec - 07:10:23 10° SSW 07:16:12 22° SSE 07:24:40 10° ESE daylight
11 Dec - 09:18:56 10° SW 09:27:37 39° S 09:41:33 10° ESE daylight
11 Dec - 11:29:47 10° WSW 11:40:47 38° SSW 11:56:44 10° SE daylight
11 Dec - 13:43:19 10° WSW 13:54:27 24° SSW 14:07:56 10° SSE daylight
12 Dec - 06:00:24 10° SSE 06:02:59 12° SE 06:05:59 10° ESE visible
12 Dec - 08:06:17 10° SW 08:13:19 32° SSE 08:24:27 10° ESE daylight
12 Dec - 10:16:08 10° WSW 10:25:36 39° S 10:40:25 10° ESE daylight
12 Dec - 12:28:05 10° WSW 12:39:04 30° SSW 12:53:50 10° SSE daylight
12 Dec - 14:45:30 10° WSW 14:52:23 14° SW 14:59:53 10° SSW daylight
13 Dec - 06:54:22 10° SSW 06:59:37 22° SSE 07:07:15 10° ESE visible
13 Dec - 09:03:01 10° SW 09:10:55 37° S 09:23:40 10° ESE daylight
13 Dec - 11:13:50 10° WSW 11:23:47 34° SSW 11:38:28 10° SE daylight
13 Dec - 13:27:38 10° WSW 13:37:13 20° SSW 13:48:53 10° S daylight
14 Dec - 05:44:13 10° SSE 05:46:27 12° SE 05:49:01 10° ESE visible
14 Dec - 07:50:24 10° SW 07:56:46 30° SSE 08:06:48 10° ESE daylight
14 Dec - 10:00:15 10° WSW 10:08:50 36° S 10:22:20 10° SE daylight
14 Dec - 12:12:16 10° WSW 12:22:00 26° SSW 12:35:10 10° SSE daylight
14 Dec - 14:33:41 10° SW 14:35:09 10° SW 14:36:39 10° SW daylight
15 Dec - 06:38:25 10° SSW 06:43:10 21° SSE 06:49:55 10° ESE visible
15 Dec - 08:47:11 10° SW 08:54:20 34° S 09:05:49 10° ESE daylight
15 Dec - 10:58:02 10° WSW 11:06:56 30° SSW 11:20:05 10° SE daylight
15 Dec - 13:12:26 10° WSW 13:20:07 16° SSW 13:29:20 10° S daylight
